QPF
0.01 0.01 0.00 0.00 0.00 0.00 0.01 0.02 0.01 0.01 0.01 0.02 0.01 0.01 0.02 0.02 0.06 0.09 0.09 0.10 0.07 0.06 0.06 0.07 0.07 0.06 0.05 0.03 0.04 0.05 0.05 0.04 0.04 0.04 0.04 0.04 0.04 0.05 0.06 0.07 0.10 0.10 0.10 0.13 0.14 0.11 0.09 0.08 0.08
0.01 0.01 0.00 0.00 0.00 0.00 0.02 0.03 0.02 0.02 0.02 0.01 0.00 0.00 0.01 0.03 0.07 0.09 0.09 0.08 0.05 0.04 0.05 0.07 0.06 0.05 0.05 0.04 0.04 0.05 0.04 0.02 0.02 0.03 0.03 0.03 0.03 0.03 0.06 0.08 0.08 0.07 0.08 0.10 0.11 0.09 0.07 0.07 0.07
0.01 0.00 0.00 0.00 0.00 0.00 0.01 0.01 0.01 0.02 0.02 0.01 0.01 0.00 0.02 0.06 0.07 0.07 0.07 0.06 0.04 0.03 0.03 0.06 0.05 0.04 0.05 0.05 0.05 0.06 0.05 0.03 0.03 0.03 0.03 0.03 0.03 0.03 0.05 0.08 0.09 0.08 0.07 0.08 0.09 0.07 0.07 0.06 0.05
0.00 0.00 0.00 0.00 0.00 0.00 0.00 0.00 0.01 0.01 0.01 0.01 0.01 0.02 0.04 0.07 0.06 0.04 0.05 0.05 0.02 0.01 0.03 0.05 0.04 0.04 0.04 0.04 0.04 0.04 0.03 0.03 0.03 0.03 0.03 0.03 0.04 0.04 0.07 0.09 0.10 0.11 0.09 0.09 0.08 0.06 0.05 0.05 0.05
0.00 0.00 0.00 0.00 0.00 0.00 0.00 0.00 0.00 0.00 0.00 0.00 0.01 0.03 0.04 0.06 0.03 0.02 0.02 0.03 0.02 0.01 0.03 0.05 0.05 0.05 0.05 0.05 0.06 0.06 0.04 0.02 0.02 0.03 0.03 0.04 0.04 0.06 0.08 0.09 0.10 0.10 0.09 0.08 0.07 0.06 0.04 0.04 0.06
0.00 0.00 0.00 0.00 0.00 0.00 0.00 0.00 0.00 0.00 0.00 0.00 0.00 0.01 0.05 0.06 0.02 0.01 0.02 0.02 0.01 0.01 0.02 0.03 0.04 0.06 0.05 0.04 0.05 0.07 0.06 0.04 0.03 0.03 0.04 0.04 0.05 0.06 0.07 0.08 0.10 0.09 0.07 0.06 0.06 0.06 0.05 0.04 0.04
0.00 0.00 0.00 0.00 0.00 0.00 0.00 0.00 0.00 0.00 0.00 0.00 0.00 0.00 0.03 0.06 0.04 0.02 0.02 0.02 0.02 0.01 0.01 0.02 0.03 0.05 0.06 0.07 0.07 0.07 0.07 0.05 0.04 0.04 0.04 0.04 0.04 0.05 0.05 0.05 0.06 0.06 0.05 0.05 0.05 0.05 0.04 0.04 0.04
0.00 0.00 0.00 0.00 0.00 0.00 0.00 0.00 0.00 0.00 0.00 0.00 0.00 0.00 0.01 0.03 0.03 0.03 0.02 0.02 0.02 0.01 0.01 0.01 0.01 0.02 0.04 0.07 0.10 0.10 0.10 0.09 0.08 0.08 0.07 0.06 0.05 0.05 0.04 0.04 0.05 0.06 0.05 0.06 0.06 0.06 0.05 0.05 0.05
0.00 0.00 0.00 0.00 0.00 0.00 0.00 0.00 0.00 0.00 0.00 0.00 0.00 0.00 0.00 0.01 0.01 0.02 0.01 0.01 0.01 0.01 0.00 0.00 0.00 0.01 0.03 0.05 0.08 0.10 0.11 0.12 0.11 0.11 0.11 0.08 0.05 0.04 0.04 0.06 0.08 0.07 0.07 0.07 0.08 0.08 0.07 0.07 0.06
0.00 0.00 0.00 0.00 0.00 0.00 0.00 0.00 0.00 0.00 0.00 0.00 0.00 0.00 0.00 0.00 0.01 0.01 0.01 0.01 0.01 0.00 0.00 0.00 0.00 0.01 0.02 0.04 0.06 0.07 0.08 0.11 0.14 0.16 0.15 0.10 0.08 0.06 0.06 0.09 0.10 0.10 0.09 0.09 0.08 0.08 0.07 0.04 0.05
0.00 0.00 0.00 0.00 0.00 0.00 0.00 0.00 0.00 0.00 0.00 0.00 0.00 0.00 0.00 0.00 0.01 0.01 0.01 0.01 0.01 0.00 0.00 0.00 0.01 0.01 0.01 0.02 0.03 0.05 0.07 0.10 0.16 0.17 0.13 0.12 0.11 0.09 0.07 0.07 0.08 0.10 0.09 0.07 0.06 0.05 0.04 0.04 0.06
0.00 0.00 0.00 0.00 0.00 0.00 0.00 0.00 0.00 0.00 0.00 0.00 0.00 0.00 0.00 0.00 0.00 0.00 0.00 0.00 0.01 0.01 0.01 0.01 0.01 0.01 0.01 0.01 0.02 0.04 0.06 0.08 0.12 0.12 0.09 0.09 0.10 0.08 0.06 0.05 0.10 0.10 0.07 0.06 0.04 0.03 0.03 0.05 0.06
0.00 0.00 0.00 0.00 0.00 0.00 0.00 0.00 0.00 0.00 0.00 0.00 0.00 0.00 0.00 0.00 0.00 0.00 0.00 0.00 0.01 0.01 0.01 0.02 0.01 0.02 0.02 0.02 0.03 0.03 0.06 0.08 0.10 0.09 0.08 0.07 0.08 0.09 0.06 0.07 0.13 0.12 0.08 0.05 0.04 0.03 0.03 0.03 0.03
0.00 0.00 0.00 0.00 0.00 0.00 0.00 0.00 0.00 0.01 0.00 0.00 0.00 0.00 0.00 0.00 0.00 0.00 0.01 0.01 0.01 0.00 0.00 0.01 0.02 0.02 0.02 0.02 0.02 0.03 0.04 0.05 0.07 0.08 0.08 0.08 0.08 0.07 0.06 0.09 0.15 0.11 0.06 0.04 0.03 0.04 0.04 0.04 0.04
0.00 0.00 0.00 0.00 0.01 0.00 0.00 0.00 0.00 0.01 0.01 0.00 0.00 0.00 0.00 0.00 0.00 0.00 0.00 0.01 0.01 0.00 0.00 0.01 0.01 0.01 0.02 0.02 0.02 0.02 0.02 0.03 0.05 0.08 0.07 0.08 0.09 0.09 0.08 0.11 0.15 0.10 0.06 0.06 0.05 0.06 0.06 0.05 0.04
0.00 0.00 0.00 0.00 0.01 0.00 0.00 0.00 0.00 0.00 0.01 0.01 0.00 0.00 0.00 0.00 0.00 0.00 0.00 0.01 0.02 0.01 0.00 0.01 0.01 0.01 0.02 0.02 0.02 0.02 0.02 0.03 0.04 0.06 0.07 0.08 0.10 0.12 0.12 0.13 0.14 0.10 0.08 0.08 0.09 0.09 0.08 0.06 0.05
0.00 0.00 0.00 0.00 0.00 0.01 0.00 0.00 0.00 0.00 0.00 0.00 0.01 0.00 0.00 0.00 0.00 0.00 0.01 0.01 0.01 0.02 0.02 0.03 0.02 0.02 0.02 0.02 0.02 0.01 0.02 0.03 0.04 0.06 0.08 0.09 0.10 0.14 0.15 0.15 0.13 0.10 0.08 0.08 0.08 0.07 0.05 0.04 0.03
0.00 0.00 0.00 0.00 0.00 0.00 0.00 0.00 0.00 0.00 0.00 0.01 0.01 0.01 0.01 0.01 0.01 0.01 0.01 0.01 0.02 0.04 0.07 0.06 0.04 0.02 0.01 0.02 0.02 0.02 0.03 0.03 0.04 0.06 0.07 0.09 0.11 0.13 0.13 0.15 0.16 0.13 0.09 0.07 0.05 0.04 0.03 0.04 0.03
0.00 0.00 0.00 0.00 0.00 0.00 0.00 0.00 0.00 0.00 0.00 0.01 0.02 0.02 0.02 0.02 0.02 0.01 0.01 0.01 0.02 0.04 0.05 0.06 0.06 0.03 0.02 0.01 0.01 0.02 0.03 0.04 0.04 0.05 0.07 0.09 0.08 0.10 0.12 0.12 0.15 0.13 0.08 0.06 0.04 0.04 0.03 0.03 0.02
0.00 0.00 0.00 0.00 0.00 0.00 0.00 0.00 0.00 0.00 0.00 0.01 0.02 0.03 0.04 0.03 0.02 0.02 0.01 0.01 0.01 0.02 0.03 0.03 0.02 0.02 0.03 0.02 0.01 0.01 0.02 0.03 0.04 0.04 0.05 0.06 0.08 0.09 0.11 0.12 0.09 0.08 0.07 0.06 0.05 0.05 0.03 0.02 0.02
0.00 0.00 0.00 0.00 0.00 0.00 0.00 0.00 0.00 0.00 0.00 0.01 0.02 0.03 0.03 0.02 0.02 0.01 0.02 0.02 0.01 0.02 0.02 0.02 0.02 0.03 0.03 0.04 0.03 0.02 0.01 0.02 0.02 0.03 0.04 0.04 0.05 0.06 0.07 0.06 0.05 0.04 0.04 0.05 0.05 0.04 0.02 0.02 0.02
0.00 0.00 0.00 0.00 0.00 0.00 0.00 0.00 0.00 0.00 0.00 0.00 0.00 0.01 0.01 0.02 0.02 0.02 0.03 0.02 0.02 0.02 0.03 0.02 0.03 0.03 0.04 0.04 0.03 0.03 0.02 0.02 0.03 0.03 0.03 0.03 0.03 0.03 0.03 0.05 0.03 0.02 0.02 0.03 0.04 0.03 0.02 0.02 0.01
0.00 0.00 0.00 0.00 0.00 0.01 0.00 0.00 0.00 0.00 0.00 0.00 0.00 0.01 0.02 0.02 0.01 0.01 0.01 0.01 0.02 0.03 0.03 0.04 0.04 0.04 0.03 0.04 0.04 0.03 0.02 0.02 0.03 0.03 0.03 0.03 0.03 0.04 0.05 0.07 0.05 0.04 0.02 0.02 0.03 0.03 0.03 0.02 0.02
0.00 0.00 0.00 0.00 0.00 0.00 0.01 0.00 0.00 0.00 0.00 0.00 0.00 0.01 0.02 0.01 0.01 0.01 0.01 0.01 0.02 0.04 0.06 0.05 0.05 0.04 0.03 0.03 0.02 0.02 0.02 0.01 0.01 0.02 0.03 0.04 0.04 0.04 0.04 0.04 0.03 0.03 0.03 0.03 0.04 0.04 0.04 0.03 0.03
0.00 0.00 0.00 0.00 0.00 0.00 0.00 0.00 0.00 0.00 0.00 0.00 0.00 0.00 0.01 0.01 0.01 0.01 0.01 0.01 0.02 0.03 0.04 0.05 0.03 0.03 0.02 0.02 0.02 0.02 0.01 0.01 0.01 0.02 0.02 0.03 0.03 0.04 0.03 0.03 0.04 0.04 0.03 0.04 0.05 0.05 0.04 0.04 0.04
0.00 0.00 0.00 0.00 0.00 0.00 0.00 0.00 0.00 0.00 0.00 0.00 0.00 0.00 0.01 0.01 0.00 0.01 0.01 0.02 0.01 0.02 0.03 0.02 0.01 0.01 0.01 0.01 0.01 0.01 0.01 0.01 0.01 0.02 0.03 0.03 0.03 0.03 0.04 0.04 0.04 0.04 0.04 0.04 0.05 0.05 0.06 0.04 0.03
0.00 0.00 0.00 0.00 0.00 0.00 0.00 0.00 0.00 0.00 0.00 0.00 0.00 0.00 0.01 0.00 0.00 0.01 0.01 0.01 0.01 0.02 0.02 0.01 0.01 0.01 0.01 0.01 0.01 0.01 0.01 0.02 0.01 0.02 0.02 0.02 0.03 0.03 0.04 0.03 0.02 0.03 0.03 0.04 0.05 0.06 0.05 0.03 0.04
0.00 0.00 0.00 0.00 0.00 0.00 0.00 0.00 0.00 0.00 0.00 0.00 0.00 0.01 0.00 0.00 0.01 0.01 0.01 0.00 0.01 0.01 0.01 0.01 0.01 0.01 0.01 0.01 0.02 0.03 0.04 0.03 0.03 0.03 0.02 0.01 0.02 0.03 0.03 0.03 0.02 0.02 0.03 0.04 0.05 0.04 0.04 0.04 0.04
0.00 0.00 0.00 0.00 0.00 0.00 0.00 0.00 0.00 0.00 0.00 0.00 0.00 0.00 0.00 0.00 0.01 0.00 0.00 0.00 0.01 0.01 0.01 0.01 0.01 0.01 0.01 0.01 0.02 0.03 0.04 0.04 0.04 0.03 0.03 0.02 0.02 0.02 0.02 0.01 0.01 0.02 0.02 0.03 0.03 0.04 0.04 0.04 0.03
0.00 0.00 0.00 0.00 0.00 0.00 0.00 0.00 0.00 0.00 0.00 0.00 0.00 0.00 0.00 0.01 0.01 0.01 0.01 0.01 0.01 0.01 0.01 0.01 0.01 0.01 0.01 0.02 0.01 0.03 0.03 0.03 0.03 0.03 0.02 0.03 0.03 0.02 0.02 0.01 0.02 0.02 0.02 0.02 0.03 0.04 0.06 0.05 0.03
MSLP
1005.11 1006.46 1008.07 1009.74 1011.28 1012.54 1013.42 1013.92 1014.08 1014.01 1013.83 1013.66 1013.57 1013.57 1013.63 1013.70 1013.70 1013.56 1013.28 1012.85 1012.34 1011.81 1011.33 1010.96 1010.72 1010.59 1010.54 1010.53 1010.52 1010.46 1010.36 1010.24 1010.14 1010.09 1010.11 1010.22 1010.38 1010.58 1010.77 1010.90 1010.95 1010.92 1010.83 1010.72 1010.63 1010.61 1010.67 1010.84 1011.09
1005.51 1007.11 1008.89 1010.65 1012.18 1013.34 1014.05 1014.32 1014.24 1013.93 1013.56 1013.24 1013.06 1013.04 1013.12 1013.24 1013.31 1013.26 1013.06 1012.72 1012.28 1011.82 1011.40 1011.08 1010.88 1010.80 1010.78 1010.80 1010.81 1010.79 1010.73 1010.66 1010.61 1010.61 1010.68 1010.82 1011.01 1011.21 1011.39 1011.49 1011.51 1011.45 1011.34 1011.21 1011.12 1011.09 1011.16 1011.33 1011.59
1006.10 1007.88 1009.77 1011.54 1013.00 1014.01 1014.52 1014.56 1014.26 1013.76 1013.24 1012.84 1012.61 1012.58 1012.70 1012.87 1013.00 1013.02 1012.88 1012.60 1012.23 1011.83 1011.47 1011.20 1011.06 1011.02 1011.06 1011.12 1011.17 1011.19 1011.17 1011.13 1011.11 1011.14 1011.23 1011.37 1011.55 1011.73 1011.87 1011.95 1011.95 1011.88 1011.77 1011.66 1011.59 1011.59 1011.68 1011.87 1012.14
1006.83 1008.73 1010.64 1012.36 1013.69 1014.52 1014.83 1014.67 1014.19 1013.57 1012.97 1012.52 1012.30 1012.30 1012.46 1012.67 1012.85 1012.91 1012.81 1012.57 1012.24 1011.88 1011.58 1011.37 1011.28 1011.30 1011.39 1011.50 1011.59 1011.64 1011.64 1011.63 1011.62 1011.64 1011.71 1011.83 1011.97 1012.12 1012.23 1012.29 1012.29 1012.23 1012.15 1012.08 1012.06 1012.10 1012.23 1012.44 1012.71
1007.63 1009.54 1011.41 1013.01 1014.17 1014.82 1014.95 1014.65 1014.06 1013.38 1012.77 1012.35 1012.18 1012.23 1012.44 1012.70 1012.90 1012.98 1012.90 1012.68 1012.38 1012.06 1011.80 1011.64 1011.60 1011.66 1011.79 1011.93 1012.05 1012.11 1012.13 1012.11 1012.09 1012.09 1012.13 1012.21 1012.31 1012.42 1012.51 1012.55 1012.56 1012.53 1012.50 1012.48 1012.51 1012.61 1012.78 1013.00 1013.28
1008.37 1010.23 1011.97 1013.40 1014.39 1014.87 1014.87 1014.48 1013.88 1013.22 1012.68 1012.34 1012.25 1012.37 1012.63 1012.92 1013.14 1013.22 1013.15 1012.94 1012.65 1012.37 1012.14 1012.02 1012.02 1012.12 1012.27 1012.42 1012.54 1012.60 1012.60 1012.57 1012.53 1012.50 1012.51 1012.55 1012.62 1012.69 1012.76 1012.80 1012.82 1012.82 1012.83 1012.87 1012.95 1013.09 1013.29 1013.53 1013.79
1008.97 1010.69 1012.25 1013.49 1014.30 1014.64 1014.56 1014.18 1013.63 1013.07 1012.65 1012.44 1012.46 1012.66 1012.97 1013.28 1013.50 1013.58 1013.51 1013.31 1013.05 1012.80 1012.61 1012.52 1012.55 1012.65 1012.80 1012.93 1013.03 1013.07 1013.05 1012.99 1012.93 1012.89 1012.87 1012.89 1012.94 1013.00 1013.05 1013.09 1013.11 1013.14 1013.18 1013.25 1013.37 1013.53 1013.74 1013.97 1014.22
1009.36 1010.89 1012.24 1013.27 1013.92 1014.17 1014.07 1013.74 1013.31 1012.91 1012.65 1012.59 1012.73 1013.01 1013.35 1013.67 1013.89 1013.96 1013.89 1013.72 1013.49 1013.28 1013.14 1013.09 1013.13 1013.23 1013.35 1013.45 1013.51 1013.51 1013.46 1013.39 1013.32 1013.27 1013.26 1013.28 1013.32 1013.38 1013.42 1013.46 1013.48 1013.50 1013.55 1013.63 1013.75 1013.92 1014.12 1014.34 1014.56
1009.54 1010.86 1011.98 1012.82 1013.32 1013.51 1013.45 1013.22 1012.94 1012.72 1012.64 1012.73 1012.96 1013.30 1013.67 1013.98 1014.19 1014.26 1014.21 1014.07 1013.90 1013.75 1013.66 1013.65 1013.70 1013.79 1013.88 1013.94 1013.95 1013.91 1013.83 1013.75 1013.68 1013.65 1013.66 1013.71 1013.77 1013.83 1013.88 1013.90 1013.91 1013.91 1013.94 1014.00 1014.10 1014.24 1014.42 1014.61 1014.82
1009.58 1010.68 1011.58 1012.24 1012.64 1012.80 1012.79 1012.68 1012.56 1012.52 1012.60 1012.80 1013.11 1013.48 1013.84 1014.13 1014.32 1014.40 1014.37 1014.29 1014.19 1014.11 1014.09 1014.13 1014.20 1014.28 1014.34 1014.35 1014.32 1014.24 1014.15 1014.07 1014.03 1014.03 1014.08 1014.16 1014.26 1014.33 1014.38 1014.38 1014.36 1014.33 1014.32 1014.34 1014.40 1014.51 1014.65 1014.82 1015.00
1009.59 1010.48 1011.19 1011.70 1012.02 1012.17 1012.21 1012.22 1012.24 1012.34 1012.53 1012.81 1013.16 1013.51 1013.84 1014.10 1014.26 1014.34 1014.34 1014.32 1014.30 1014.32 1014.37 1014.46 1014.56 1014.64 1014.68 1014.67 1014.60 1014.50 1014.41 1014.34 1014.32 1014.37 1014.47 1014.60 1014.72 1014.82 1014.86 1014.85 1014.80 1014.73 1014.66 1014.63 1014.65 1014.72 1014.84 1014.98 1015.15
1009.69 1010.40 1010.96 1011.34 1011.59 1011.73 1011.82 1011.91 1012.04 1012.22 1012.48 1012.78 1013.11 1013.42 1013.69 1013.89 1014.02 1014.09 1014.13 1014.17 1014.24 1014.34 1014.47 1014.63 1014.76 1014.86 1014.89 1014.86 1014.78 1014.68 1014.59 1014.54 1014.56 1014.65 1014.79 1014.96 1015.11 1015.22 1015.27 1015.24 1015.16 1015.05 1014.95 1014.88 1014.86 1014.90 1014.99 1015.13 1015.29
1009.96 1010.55 1010.97 1011.26 1011.45 1011.58 1011.70 1011.83 1012.00 1012.22 1012.48 1012.75 1013.02 1013.26 1013.45 1013.58 1013.67 1013.73 1013.80 1013.89 1014.03 1014.20 1014.41 1014.61 1014.79 1014.91 1014.96 1014.94 1014.86 1014.77 1014.69 1014.67 1014.71 1014.83 1015.00 1015.19 1015.37 1015.49 1015.54 1015.51 1015.42 1015.29 1015.17 1015.07 1015.04 1015.07 1015.15 1015.29 1015.45
1010.46 1010.94 1011.27 1011.48 1011.63 1011.74 1011.86 1012.00 1012.16 1012.36 1012.57 1012.77 1012.95 1013.09 1013.19 1013.26 1013.30 1013.35 1013.43 1013.55 1013.73 1013.96 1014.21 1014.46 1014.67 1014.83 1014.90 1014.91 1014.86 1014.79 1014.74 1014.73 1014.79 1014.92 1015.10 1015.30 1015.47 1015.60 1015.66 1015.63 1015.55 1015.43 1015.32 1015.23 1015.20 1015.24 1015.34 1015.48 1015.65
1011.13 1011.53 1011.79 1011.95 1012.06 1012.15 1012.25 1012.36 1012.48 1012.61 1012.74 1012.85 1012.93 1012.97 1012.99 1013.00 1013.00 1013.03 1013.11 1013.24 1013.43 1013.68 1013.95 1014.23 1014.47 1014.66 1014.77 1014.82 1014.81 1014.78 1014.75 1014.76 1014.82 1014.94 1015.10 1015.28 1015.45 1015.57 1015.64 1015.64 1015.58 1015.50 1015.42 1015.37 1015.37 1015.43 1015.55 1015.70 1015.88
1011.85 1012.20 1012.42 1012.55 1012.64 1012.71 1012.77 1012.84 1012.90 1012.94 1012.97 1012.98 1012.96 1012.92 1012.87 1012.83 1012.81 1012.82 1012.89 1013.01 1013.19 1013.43 1013.70 1013.98 1014.24 1014.45 1014.62 1014.71 1014.76 1014.77 1014.77 1014.79 1014.83 1014.92 1015.04 1015.19 1015.33 1015.44 1015.53 1015.56 1015.56 1015.54 1015.52 1015.52 1015.57 1015.66 1015.79 1015.96 1016.13
1012.50 1012.81 1013.01 1013.15 1013.24 1013.30 1013.34 1013.35 1013.33 1013.28 1013.21 1013.11 1013.00 1012.90 1012.81 1012.75 1012.72 1012.73 1012.78 1012.89 1013.04 1013.25 1013.49 1013.75 1014.02 1014.26 1014.47 1014.63 1014.74 1014.80 1014.83 1014.85 1014.87 1014.91 1014.98 1015.07 1015.17 1015.28 1015.37 1015.45 1015.51 1015.56 1015.62 1015.69 1015.78 1015.90 1016.06 1016.22 1016.38
1012.95 1013.25 1013.47 1013.64 1013.76 1013.84 1013.86 1013.82 1013.72 1013.57 1013.38 1013.19 1013.00 1012.85 1012.74 1012.68 1012.66 1012.68 1012.74 1012.84 1012.96 1013.13 1013.34 1013.58 1013.84 1014.11 1014.37 1014.59 1014.76 1014.88 1014.94 1014.96 1014.95 1014.93 1014.94 1014.96 1015.02 1015.11 1015.22 1015.34 1015.47 1015.60 1015.73 1015.86 1016.00 1016.15 1016.31 1016.47 1016.61
1013.15 1013.46 1013.74 1013.98 1014.17 1014.28 1014.30 1014.21 1014.02 1013.76 1013.45 1013.15 1012.89 1012.70 1012.58 1012.54 1012.56 1012.61 1012.70 1012.79 1012.90 1013.04 1013.22 1013.44 1013.70 1014.00 1014.30 1014.59 1014.82 1014.99 1015.09 1015.10 1015.07 1015.00 1014.94 1014.90 1014.91 1014.98 1015.10 1015.26 1015.44 1015.64 1015.83 1016.02 1016.19 1016.36 1016.51 1016.66 1016.79
1013.10 1013.46 1013.84 1014.19 1014.48 1014.66 1014.68 1014.54 1014.25 1013.85 1013.40 1012.97 1012.61 1012.37 1012.24 1012.23 1012.30 1012.41 1012.54 1012.67 1012.79 1012.92 1013.08 1013.29 1013.56 1013.88 1014.23 1014.58 1014.88 1015.10 1015.23 1015.26 1015.20 1015.09 1014.96 1014.87 1014.84 1014.88 1015.00 1015.19 1015.42 1015.67 1015.91 1016.13 1016.32 1016.49 1016.63 1016.76 1016.88
1012.87 1013.34 1013.86 1014.37 1014.79 1015.04 1015.07 1014.86 1014.44 1013.87 1013.24 1012.64 1012.15 1011.83 1011.68 1011.69 1011.82 1012.00 1012.20 1012.39 1012.55 1012.70 1012.87 1013.08 1013.37 1013.72 1014.11 1014.51 1014.88 1015.16 1015.32 1015.36 1015.29 1015.15 1014.99 1014.85 1014.77 1014.79 1014.91 1015.11 1015.36 1015.64 1015.91 1016.14 1016.34 1016.50 1016.62 1016.74 1016.85
1012.59 1013.22 1013.93 1014.62 1015.18 1015.50 1015.52 1015.22 1014.64 1013.86 1013.00 1012.20 1011.54 1011.10 1010.90 1010.91 1011.09 1011.35 1011.64 1011.90 1012.13 1012.33 1012.53 1012.77 1013.07 1013.45 1013.89 1014.34 1014.76 1015.09 1015.30 1015.37 1015.30 1015.15 1014.96 1014.79 1014.69 1014.68 1014.78 1014.97 1015.23 1015.51 1015.78 1016.01 1016.20 1016.35 1016.46 1016.57 1016.68
1012.40 1013.22 1014.14 1015.02 1015.72 1016.10 1016.09 1015.67 1014.90 1013.87 1012.75 1011.70 1010.83 1010.24 1009.95 1009.94 1010.15 1010.49 1010.86 1011.22 1011.53 1011.79 1012.05 1012.32 1012.65 1013.06 1013.53 1014.02 1014.48 1014.87 1015.12 1015.23 1015.19 1015.05 1014.86 1014.67 1014.54 1014.51 1014.58 1014.75 1014.99 1015.25 1015.51 1015.73 1015.90 1016.03 1016.14 1016.24 1016.37
1012.38 1013.40 1014.53 1015.59 1016.40 1016.83 1016.76 1016.20 1015.21 1013.92 1012.52 1011.20 1010.10 1009.33 1008.93 1008.88 1009.10 1009.49 1009.95 1010.39 1010.79 1011.12 1011.43 1011.74 1012.10 1012.53 1013.02 1013.55 1014.05 1014.48 1014.78 1014.94 1014.94 1014.83 1014.66 1014.47 1014.33 1014.27 1014.31 1014.45 1014.64 1014.87 1015.08 1015.27 1015.43 1015.55 1015.66 1015.78 1015.93
1012.54 1013.76 1015.07 1016.27 1017.17 1017.60 1017.46 1016.75 1015.54 1014.00 1012.33 1010.75 1009.43 1008.48 1007.96 1007.84 1008.05 1008.47 1008.99 1009.51 1009.97 1010.37 1010.73 1011.07 1011.45 1011.89 1012.39 1012.93 1013.47 1013.94 1014.30 1014.51 1014.58 1014.52 1014.38 1014.21 1014.07 1013.99 1013.98 1014.06 1014.20 1014.37 1014.54 1014.69 1014.82 1014.94 1015.05 1015.20 1015.38
1012.84 1014.22 1015.66 1016.95 1017.88 1018.28 1018.05 1017.20 1015.81 1014.06 1012.18 1010.38 1008.87 1007.77 1007.14 1006.95 1007.13 1007.56 1008.10 1008.66 1009.18 1009.62 1010.00 1010.36 1010.75 1011.19 1011.69 1012.24 1012.80 1013.31 1013.72 1014.00 1014.14 1014.15 1014.06 1013.92 1013.78 1013.68 1013.63 1013.65 1013.72 1013.82 1013.93 1014.04 1014.15 1014.26 1014.39 1014.57 1014.79
1013.18 1014.65 1016.15 1017.46 1018.37 1018.71 1018.40 1017.43 1015.92 1014.03 1012.01 1010.09 1008.46 1007.26 1006.54 1006.29 1006.43 1006.84 1007.38 1007.95 1008.48 1008.93 1009.32 1009.69 1010.06 1010.50 1010.99 1011.54 1012.11 1012.65 1013.12 1013.47 1013.69 1013.77 1013.74 1013.65 1013.52 1013.40 1013.31 1013.26 1013.25 1013.28 1013.33 1013.40 1013.49 1013.60 1013.75 1013.95 1014.22
1013.44 1014.92 1016.40 1017.66 1018.50 1018.76 1018.37 1017.35 1015.78 1013.86 1011.81 1009.87 1008.21 1006.97 1006.21 1005.92 1006.01 1006.37 1006.88 1007.42 1007.93 1008.37 1008.75 1009.10 1009.46 1009.87 1010.35 1010.90 1011.48 1012.05 1012.57 1012.99 1013.28 1013.44 1013.48 1013.44 1013.33 1013.20 1013.07 1012.97 1012.89 1012.84 1012.83 1012.86 1012.92 1013.04 1013.21 1013.45 1013.74
1013.53 1014.94 1016.31 1017.45 1018.17 1018.34 1017.90 1016.87 1015.35 1013.50 1011.54 1009.68 1008.09 1006.89 1006.14 1005.83 1005.87 1006.18 1006.62 1007.11 1007.57 1007.97 1008.32 1008.64 1008.98 1009.38 1009.84 1010.38 1010.97 1011.57 1012.12 1012.60 1012.97 1013.21 1013.33 1013.33 1013.26 1013.14 1012.99 1012.83 1012.70 1012.59 1012.53 1012.51 1012.56 1012.68 1012.87 1013.13 1013.46
1013.42 1014.68 1015.87 1016.82 1017.39 1017.47 1017.01 1016.03 1014.63 1012.95 1011.18 1009.51 1008.07 1006.98 1006.28 1005.96 1005.97 1006.20 1006.57 1006.97 1007.37 1007.72 1008.03 1008.33 1008.65 1009.03 1009.49 1010.02 1010.61 1011.23 1011.82 1012.35 1012.78 1013.09 1013.28 1013.35 1013.33 1013.23 1013.07 1012.90 1012.72 1012.58 1012.47 1012.43 1012.46 1012.58 1012.78 1013.06 1013.41
Thickness
5837 5834 5828 5815 5791 5764 5752 5759 5768 5765 5765 5772 5774 5769 5760 5753 5747 5741 5758 5767 5768 5768 5769 5770 5770 5770 5771 5771 5771 5772 5771 5771 5770 5770 5769 5768 5768 5767 5766 5765 5764 5763 5762 5761 5759 5758 5756 5755 5753
5841 5835 5823 5805 5772 5745 5748 5762 5764 5768 5773 5778 5776 5770 5762 5756 5760 5759 5762 5767 5769 5768 5768 5769 5769 5769 5769 5770 5770 5770 5770 5769 5769 5768 5767 5766 5766 5765 5764 5763 5762 5761 5760 5759 5757 5756 5755 5753 5752
5842 5837 5815 5791 5766 5751 5753 5766 5769 5776 5782 5780 5772 5770 5763 5757 5762 5762 5765 5768 5768 5768 5768 5768 5768 5768 5768 5768 5769 5768 5768 5768 5767 5766 5766 5765 5764 5763 5762 5761 5760 5759 5758 5757 5756 5755 5753 5752 5751
5841 5826 5810 5783 5766 5770 5770 5773 5777 5777 5779 5780 5773 5764 5765 5769 5768 5767 5769 5769 5767 5767 5767 5767 5767 5767 5767 5767 5767 5767 5766 5766 5765 5765 5764 5763 5762 5762 5760 5759 5758 5757 5756 5755 5754 5753 5752 5752 5751
5838 5815 5788 5769 5771 5777 5782 5783 5783 5776 5773 5774 5771 5760 5759 5769 5773 5771 5770 5768 5766 5766 5766 5766 5766 5766 5766 5765 5765 5765 5765 5764 5763 5763 5762 5762 5761 5760 5759 5758 5757 5756 5755 5754 5753 5753 5752 5751 5750
5823 5806 5774 5762 5771 5779 5783 5787 5782 5775 5773 5774 5770 5761 5758 5769 5770 5770 5770 5768 5767 5766 5765 5765 5765 5764 5764 5764 5764 5763 5763 5762 5762 5761 5761 5760 5759 5759 5758 5757 5756 5755 5754 5753 5752 5751 5751 5750 5749
5817 5796 5777 5774 5773 5777 5784 5791 5783 5777 5774 5776 5775 5760 5760 5767 5771 5772 5770 5768 5767 5765 5764 5764 5764 5763 5763 5763 5762 5762 5761 5761 5760 5760 5759 5758 5758 5757 5756 5756 5755 5754 5753 5752 5751 5751 5750 5749 5748
5828 5802 5783 5777 5776 5779 5792 5793 5791 5784 5780 5787 5783 5764 5760 5769 5774 5772 5769 5767 5766 5765 5764 5763 5762 5762 5762 5761 5761 5761 5760 5760 5759 5758 5758 5757 5757 5756 5755 5755 5754 5753 5752 5752 5751 5750 5750 5749 5748
5835 5796 5778 5783 5783 5787 5797 5792 5793 5797 5789 5788 5787 5780 5778 5778 5775 5770 5767 5765 5764 5764 5763 5763 5762 5761 5761 5761 5760 5760 5760 5759 5758 5757 5756 5756 5755 5754 5754 5754 5753 5752 5752 5751 5750 5750 5749 5748 5747
5823 5792 5794 5805 5804 5800 5800 5796 5794 5790 5783 5781 5781 5783 5783 5778 5774 5769 5765 5763 5762 5762 5763 5763 5762 5761 5760 5760 5760 5759 5759 5758 5757 5756 5755 5754 5753 5753 5753 5753 5752 5752 5751 5751 5750 5750 5749 5748 5747
5824 5808 5813 5816 5816 5811 5802 5799 5801 5789 5779 5782 5781 5781 5781 5777 5773 5770 5768 5766 5765 5764 5764 5764 5763 5762 5761 5760 5759 5759 5758 5757 5756 5755 5754 5753 5752 5752 5752 5752 5751 5751 5750 5750 5750 5749 5749 5748 5747
5825 5822 5824 5820 5820 5812 5805 5802 5797 5794 5794 5799 5795 5790 5784 5778 5775 5772 5770 5769 5768 5766 5765 5765 5764 5762 5761 5760 5760 5759 5758 5757 5756 5755 5754 5753 5752 5751 5750 5750 5750 5750 5750 5749 5749 5749 5748 5748 5748
5825 5822 5825 5824 5820 5815 5809 5802 5800 5797 5804 5803 5797 5791 5786 5782 5779 5778 5776 5773 5771 5768 5768 5767 5766 5764 5763 5761 5760 5760 5759 5758 5757 5755 5754 5753 5752 5750 5750 5749 5750 5749 5749 5749 5748 5748 5748 5748 5747
5826 5823 5820 5819 5817 5815 5805 5801 5799 5797 5804 5800 5795 5789 5788 5785 5782 5779 5777 5774 5772 5771 5770 5770 5768 5766 5764 5762 5761 5760 5760 5758 5757 5756 5755 5754 5753 5751 5750 5749 5749 5748 5748 5748 5747 5747 5747 5746 5746
5829 5815 5811 5812 5814 5811 5806 5792 5796 5802 5803 5796 5793 5791 5789 5788 5786 5783 5781 5779 5777 5775 5774 5772 5770 5768 5766 5764 5763 5762 5760 5759 5758 5757 5757 5755 5754 5752 5751 5749 5749 5748 5748 5747 5746 5746 5745 5745 5745
5817 5800 5789 5805 5811 5810 5798 5779 5798 5805 5800 5794 5793 5792 5790 5789 5789 5789 5787 5784 5782 5779 5776 5774 5774 5770 5768 5766 5765 5763 5762 5761 5759 5758 5757 5756 5755 5753 5751 5750 5749 5748 5748 5747 5746 5744 5743 5743 5743
5793 5782 5784 5797 5809 5807 5797 5786 5799 5805 5800 5794 5794 5793 5792 5790 5791 5792 5791 5788 5786 5783 5779 5776 5775 5772 5770 5768 5766 5764 5763 5761 5760 5758 5757 5756 5755 5754 5752 5751 5750 5749 5748 5747 5746 5744 5743 5741 5741
5783 5784 5786 5789 5804 5803 5794 5792 5800 5804 5802 5797 5796 5794 5793 5791 5793 5795 5794 5792 5789 5786 5782 5779 5776 5774 5772 5769 5767 5764 5763 5761 5760 5759 5758 5756 5755 5754 5753 5751 5750 5749 5748 5746 5745 5743 5742 5741 5741
5801 5792 5788 5795 5809 5802 5793 5793 5798 5803 5802 5799 5797 5795 5793 5795 5798 5798 5796 5794 5790 5787 5783 5780 5777 5775 5772 5769 5765 5763 5761 5761 5760 5759 5758 5757 5755 5754 5753 5751 5750 5749 5748 5746 5745 5743 5741 5740 5740
5801 5792 5790 5799 5808 5802 5792 5792 5801 5803 5803 5804 5801 5799 5798 5797 5797 5797 5796 5795 5792 5789 5786 5782 5779 5777 5774 5772 5769 5766 5764 5762 5761 5759 5758 5757 5755 5754 5754 5752 5750 5749 5748 5746 5745 5743 5740 5739 5739
5795 5792 5793 5793 5798 5798 5792 5784 5793 5802 5806 5807 5807 5805 5804 5802 5799 5798 5797 5796 5794 5791 5789 5786 5782 5779 5776 5773 5770 5768 5764 5762 5760 5758 5757 5757 5756 5754 5753 5752 5750 5749 5748 5746 5745 5744 5741 5738 5738
5787 5804 5802 5796 5782 5771 5782 5760 5783 5793 5797 5803 5806 5806 5807 5807 5805 5802 5800 5798 5796 5795 5793 5790 5785 5781 5777 5774 5771 5767 5763 5759 5759 5758 5757 5756 5755 5754 5752 5751 5750 5748 5747 5746 5745 5744 5742 5740 5737
5798 5806 5799 5791 5778 5767 5772 5762 5773 5789 5790 5800 5808 5811 5811 5811 5808 5805 5804 5803 5801 5799 5795 5792 5787 5783 5779 5776 5773 5769 5765 5762 5760 5759 5756 5755 5754 5753 5751 5750 5749 5747 5746 5745 5744 5744 5742 5741 5738
5805 5794 5782 5770 5762 5749 5765 5760 5766 5781 5796 5805 5813 5815 5816 5815 5813 5810 5809 5806 5803 5800 5797 5793 5788 5784 5781 5777 5774 5770 5766 5763 5760 5758 5755 5754 5753 5751 5750 5749 5748 5746 5745 5744 5743 5743 5742 5740 5739
5794 5769 5744 5742 5732 5739 5762 5762 5770 5801 5813 5817 5818 5819 5820 5817 5814 5810 5808 5806 5804 5801 5797 5793 5788 5784 5782 5779 5775 5772 5768 5765 5761 5758 5755 5753 5751 5749 5749 5748 5746 5745 5744 5743 5742 5742 5740 5739 5737
5781 5771 5743 5732 5728 5738 5756 5757 5784 5812 5821 5825 5824 5822 5821 5818 5816 5813 5811 5808 5806 5803 5799 5795 5790 5785 5783 5780 5776 5773 5770 5766 5762 5759 5756 5753 5751 5750 5748 5747 5746 5744 5743 5742 5741 5739 5738 5737 5735
5775 5765 5768 5743 5738 5737 5745 5763 5791 5813 5816 5819 5821 5820 5819 5819 5817 5815 5813 5810 5808 5805 5801 5797 5792 5787 5784 5781 5777 5773 5770 5766 5762 5759 5756 5753 5751 5750 5748 5746 5744 5743 5742 5740 5739 5737 5736 5734 5733
5783 5766 5749 5737 5724 5726 5744 5756 5770 5796 5805 5811 5814 5816 5818 5819 5817 5815 5814 5812 5809 5807 5803 5799 5795 5790 5786 5781 5777 5774 5770 5767 5763 5759 5756 5753 5751 5749 5746 5744 5743 5741 5740 5738 5736 5734 5732 5731 5729
5766 5759 5745 5732 5735 5723 5727 5750 5794 5800 5808 5810 5814 5817 5818 5818 5817 5815 5813 5812 5809 5806 5803 5798 5795 5790 5785 5781 5776 5772 5769 5765 5762 5758 5755 5752 5749 5747 5744 5742 5740 5738 5736 5735 5732 5730 5729 5727 5725
5774 5762 5748 5739 5731 5727 5729 5752 5807 5807 5811 5813 5815 5817 5819 5818 5816 5814 5812 5810 5807 5803 5800 5797 5793 5789 5785 5780 5775 5770 5766 5763 5759 5756 5753 5750 5747 5745 5742 5739 5737 5735 5732 5730 5728 5726 5724 5722 5720